DELTA 1 DEB, 29187

Orbit data source: Space-Track

DELTA 1 DEB, 29187 is space debris in LEO originally from a launch on Thu, 11 Jan 1968 UTC launched from the Air Force Western Test Range (AFWTR). Debris objects in space refer to the collection of defunct objects orbiting the Earth. Examples of debris include non-operational satellites, rocket bodies, and fragments generated from explosions, collisions, or faulty payload assembly.

Loading next visibility...
Identifier
29187, 1968-002L
Orbit
LEO
Last TLE update
2 months ago
Origin
Manufacturer
Unknown
Mission
Spacecraft
Bus & Motor
Unknown
Mass
Unknown
Launch date (UTC)
1968-01-11 (57 years ago)
Launch vehicle
Unknown
Launch site
Air Force Western Test Range (AFWTR)
Object type
Payload
Rocket body
Debris
Shape & HBR
Unknown
Radar Cross Section
Small (<0.1 m²)

Expand to show TLE details & history

TLE from 2 months ago
0 DELTA 1 DEB
1 29187U 68002L   25061.03465666  .00000169  00000-0  76576-3 0  9993
2 29187 105.8033 347.6362 0297201 281.0726  94.7274 12.91092077541176
Epoch: 2025-03-02T00:49Z
Definitive object data (Epoch: 2025-03-02T00:49:54.335Z)
Latitude
18.43017°
Longitude
169.70221°
Altitude
1,324.63 km
Speed
7.185 km/s
True Right ascension
22h 49m 00s
True Declination
18° 20' 05"
Sunlit
Object was in daylight at TLE epoch
Visualization TLE readout
Latitude
21.27989°
Longitude
-87.09525°
Altitude
1,466.977 km
Speed
7.053 km/s
Apparent Right ascension
05h 12m 13s
Apparent Declination
-5° 51' 43"
Sunlit
Object is in daylight
Visualization observer readout
Local Sidereal Time
16:27:54
Azimuth
340.771° N
Elevation
-54.517°
Doppler factor
1
Orbital elements
Apogee altitude
1,523.009 km
Perigee altitude
1,066.919 km
Semi-major axis
7,673.101 km
Eccentricity
0.0297201
Inclination
105.8033°
RAAN
347.6362°
Arg. of periapsis
281.0726°
True anomaly
98.10916°
Mean anomaly
94.7274°
Eccentric anomaly
96.41956°
Mean motion
3.22914 °/min
BSTAR
0.00076576
Orbital period
111.48 mins
Loading maneuver chart data...
Loading SW <> Apogee altitude chart data...
Loading historical data...
Loading historical data...
Loading historical data...
Loading historical data...
Loading historical data...
Loading historical data...
Loading historical data...

DELTA 1 DEB Visibility forecast

Observer location: undefined°, undefined°

Span
Click to sort rows by Start time (UTC) header in descending order
Start Az.
Max El. time (UTC)
Max El. Az.
Max El.
End time (UTC)
End Az.
11 mins2025-05-14 10:21:06.476Z25.288° NE2025-05-14 10:26:06.476Z66.153° ENE44.4°2025-05-14 10:32:06.476Z200.168° SSW
6 mins2025-05-14 12:12:06.476Z340.661° N2025-05-14 12:15:06.476Z307.801° NW18.54°2025-05-14 12:18:06.476Z276.628° WNW
11 mins2025-05-14 19:12:06.476Z102.277° ESE2025-05-14 19:17:06.476Z57.486° ENE26.253°2025-05-14 19:23:06.476Z359.912° N
14 mins2025-05-14 20:59:06.476Z168.1° S2025-05-14 21:06:06.476Z257.875° W43.015°2025-05-14 21:13:06.476Z331.657° NNW
4 mins2025-05-14 22:54:06.476Z251.593° W2025-05-14 22:56:06.476Z266.652° W11.966°2025-05-14 22:58:06.476Z281.692° WNW
|